[[{"header":{"parameterUnit":"m.s-1","parameterCategory":1,"la1":30.2991,"la2":30.254,"lo1":-89.0895,"lo2":-89.0444,"dy":0.0017,"dx":0.0017,"nx":28,"ny":28,"refTime":"2024-04-30T03:00:00:Z","depth":0,"parameterNumber":2,"parameterNumberName":"U-component_of_WINDS"},"data":[0,0,0,0,0,0,0,0,0,0,0,0,0,0,0,0,0,0,0,0,0,0,0,0,0,0,0,0,0,0,0,0,0,0,0,0,0,0,0,0,0,0,0,0,0,0,0,0,0,0,0,0,0,0,0,0,0,0,-1.8752,-1.8752,0,-1.8777,-1.8777,-1.8777,-1.8758,-1.8757,-1.8756,-1.8755,-1.8781,-1.8783,-1.8784,0,0,0,0,0,0,0,0,0,0,0,0,0,-1.8689,-1.8691,-1.8752,-1.8752,-1.8752,-1.8777,-1.8777,-1.8777,-1.8758,-1.8757,-1.8756,-1.8755,-1.8781,-1.8783,-1.8784,0,0,0,0,0,0,0,0,0,0,0,0,0,-1.8716,-1.8691,-1.8752,-1.8746,-1.8745,-1.8777,-1.8777,-1.8777,-1.8758,-1.8757,-1.8755,-1.8754,-1.878,-1.8782,-1.8785,-1.8824,0,0,-1.8791,-1.8792,0,0,0,0,0,0,0,0,-1.8714,-1.8718,-1.8746,-1.8746,-1.8746,-1.8763,-1.8765,-1.8793,-1.8758,-1.8753,-1.8755,-1.8754,-1.8776,-1.8779,-1.8786,-1.8825,-1.8826,-1.8792,-1.8793,-1.8794,-1.8795,0,0,0,0,0,0,0,-1.8712,-1.8717,-1.8762,-1.8747,-1.8746,-1.8742,-1.8745,-1.877,-1.8772,-1.8754,-1.8752,-1.8755,-1.8776,-1.8784,-1.8787,-1.8826,-1.8792,-1.8794,-1.8795,-1.8796,-1.89,-1.8902,0,0,0,0,0,0,-1.8711,-1.8715,-1.8761,-1.8762,-1.8727,-1.8744,-1.8747,-1.8759,-1.8771,-1.8772,-1.8756,-1.8754,-1.8781,-1.8784,-1.8787,-1.8835,-1.8794,-1.8796,-1.8797,-1.8899,-1.8901,-1.8902,0,0,0,0,0,0,-1.871,-1.8715,-1.876,-1.8739,-1.8744,-1.8747,-1.876,-1.876,-1.8768,-1.8773,-1.8774,-1.8764,-1.878,-1.8784,-1.8815,-1.8836,-1.8797,-1.8799,-1.8897,-1.89,-1.8902,-1.8931,0,0,0,0,0,0,-1.8708,-1.8715,-1.8729,-1.8739,-1.8745,-1.8787,-1.8761,-1.8761,-1.8772,-1.8769,-1.8781,-1.8782,-1.8779,-1.8812,-1.8817,-1.8838,-1.8801,-1.8895,-1.8898,-1.8901,-1.8928,-1.8934,-1.8938,0,0,0,0,0,-1.8706,-1.8736,-1.873,-1.8736,-1.8763,-1.8788,-1.8791,-1.8788,-1.8773,-1.8788,-1.8792,-1.8781,-1.8833,-1.8815,-1.8821,-1.8843,-1.8894,-1.8897,-1.8901,-1.8926,-1.8932,-1.8938,0,0,0,0,0,0,-1.8728,-1.8737,-1.873,-1.8765,-1.8776,-1.8784,-1.8803,-1.8795,-1.8811,-1.8808,-1.8803,-1.8806,-1.8839,-1.8844,-1.8824,-1.8883,-1.8861,-1.8866,-1.8878,-1.8885,-1.889,-1.8888,-1.8803,0,0,0,0,0,-1.8737,-1.8756,-1.8763,-1.8793,-1.8799,-1.88,-1.8811,-1.8807,-1.8818,-1.8823,-1.8829,-1.8841,-1.886,-1.8872,-1.889,-1.8928,-1.8932,-1.8947,-1.8952,-1.8956,-1.896,-1.8983,-1.899,-1.8913,-1.8913,-1.8913,0,0,-1.8756,-1.8763,-1.8775,-1.8798,-1.8806,-1.8826,-1.8804,-1.8826,-1.8842,-1.8826,-1.8856,-1.8861,-1.8874,-1.891,-1.8925,-1.8915,-1.8983,-1.896,-1.8964,-1.8966,-1.8987,-1.8995,-1.9001,-1.8915,-1.8915,-1.8914,0,0,-1.8801,-1.8808,-1.8834,-1.8843,-1.8856,-1.8856,-1.8863,-1.8873,-1.8876,-1.8906,-1.8895,-1.8914,-1.8946,-1.8957,-1.8966,-1.9017,-1.9008,-1.9023,-1.905,-1.9073,-1.9079,-1.9084,-1.9104,-1.9111,-1.9027,-1.9027,-1.9027,0,-1.8823,-1.8853,-1.8848,-1.8872,-1.8883,-1.887,-1.8898,-1.8906,-1.8924,-1.8932,-1.892,-1.8962,-1.8969,-1.9008,-1.9021,-1.9028,-1.9036,-1.9021,-1.9078,-1.9084,-1.9089,-1.9107,-1.9115,-1.9029,-1.9028,-1.9028,-1.9028,0,-1.888,-1.8901,-1.8921,-1.8939,-1.8952,-1.8977,-1.8978,-1.8991,-1.8987,-1.899,-1.9021,-1.903,-1.905,-1.9059,-1.9055,-1.9098,-1.9091,-1.9079,-1.9057,-1.9098,-1.9115,-1.9122,-1.9031,-1.903,-1.903,-1.9029,0,0,-1.894,-1.8956,-1.8963,-1.8972,-1.8986,-1.9003,-1.9028,-1.9048,-1.906,-1.9073,-1.9096,-1.9124,-1.9113,-1.9124,-1.9121,-1.914,-1.9182,-1.9126,-1.9126,-1.9137,-1.9232,-1.9242,-1.925,-1.9176,-1.9178,-1.9179,-1.9231,0,-1.8987,-1.9031,-1.9028,-1.907,-1.909,-1.9079,-1.9101,-1.9113,-1.9116,-1.9135,-1.9139,-1.916,-1.9143,-1.915,-1.9168,-1.9173,-1.9201,-1.9169,-1.9198,-1.9199,-1.9196,-1.9259,-1.927,-1.9319,-1.9238,-1.9239,-1.924,0,-1.9047,-1.9063,-1.9107,-1.9119,-1.9127,-1.9147,-1.9166,-1.9184,-1.9197,-1.9198,-1.9211,-1.9205,-1.9233,-1.921,-1.9248,-1.9226,-1.9238,-1.9243,-1.9245,-1.9248,-1.9223,-1.9266,-1.9334,-1.9342,-1.925,-1.925,-1.9249,0,-1.9088,-1.912,-1.9151,-1.9159,-1.9173,-1.9188,-1.9195,-1.9207,-1.9219,-1.9236,-1.9244,-1.9264,-1.9275,-1.9291,-1.9291,-1.9274,-1.933,-1.9307,-1.9333,-1.9333,-1.9346,-1.9346,-1.9419,-1.9352,-1.9352,-1.9352,-1.9351,0,-1.9141,-1.9169,-1.917,-1.9189,-1.922,-1.9217,-1.9249,-1.9254,-1.9265,-1.9286,-1.9277,-1.9297,-1.9296,-1.9316,-1.9316,-1.9349,-1.9354,-1.9356,-1.9357,-1.9358,-1.9358,-1.9366,-1.9363,-1.9354,-1.9353,-1.9353,-1.9352,0,-1.9193,-1.9194,-1.9227,-1.9239,-1.9242,-1.9265,-1.9275,-1.9294,-1.9297,-1.9324,-1.933,-1.9335,-1.9358,-1.936,-1.9387,-1.9388,-1.9428,-1.9423,-1.9423,-1.9423,-1.945,-1.9448,-1.9532,-1.9544,-1.9468,-1.9468,-1.9469,0,-1.9227,-1.9248,-1.9262,-1.9275,-1.9283,-1.9305,-1.9318,-1.9316,-1.933,-1.9348,-1.9365,-1.9388,-1.9406,-1.9445,-1.9452,-1.9473,-1.947,-1.9498,-1.9473,-1.9475,-1.9472,-1.9472,-1.9475,-1.9503,-1.9504,-1.9505,-1.9505,0,-1.9288,-1.9289,-1.9307,-1.9327,-1.9343,-1.9359,-1.9373,-1.9385,-1.9385,-1.9401,-1.9426,-1.944,-1.9469,-1.9492,-1.9513,-1.9521,-1.9514,-1.9513,-1.9521,-1.9523,-1.9523,-1.9525,-1.9438,-1.9511,-1.9511,-1.951,-1.951,-1.951,-1.9333,-1.9352,-1.9366,-1.9388,-1.9398,-1.9412,-1.9431,-1.9437,-1.9457,-1.948,-1.9478,-1.9505,-1.952,-1.9548,-1.9557,-1.958,-1.957,-1.958,-1.9583,-1.9586,-1.959,-1.9518,-1.9583,-1.9583,-1.9583,-1.9583,-1.9583,0,-1.9396,-1.9404,-1.9424,-1.9445,-1.9463,-1.9454,-1.947,-1.9485,-1.9509,-1.9523,-1.9542,-1.9571,-1.9594,-1.9603,-1.9626,-1.9642,-1.9639,-1.9648,-1.9648,-1.965,-1.9596,-1.9588,-1.965,-1.965,-1.965,-1.965,-1.965,-1.965,-1.943,-1.9463,-1.9464,-1.9503,-1.9511,-1.9537,-1.9547,-1.9561,-1.9572,-1.9605,-1.9624,-1.9629,-1.9642,-1.9666,-1.9687,-1.9689,-1.9699,-1.971,-1.971,-1.966,-1.9653,-1.9647,-1.9639,-1.9711,-1.9711,-1.9763,-1.9763,-1.9763]},{"header":{"parameterUnit":"m.s-1","parameterCategory":1,"la1":30.2991,"la2":30.254,"lo1":-89.0895,"lo2":-89.0444,"dy":0.0017,"dx":0.0017,"nx":28,"ny":28,"refTime":"2024-04-30T03:00:00:Z","depth":0,"parameterNumber":3,"parameterNumberName":"V-component_of_WINDS"},"data":[0,0,0,0,0,0,0,0,0,0,0,0,0,0,0,0,0,0,0,0,0,0,0,0,0,0,0,0,0,0,0,0,0,0,0,0,0,0,0,0,0,0,0,0,0,0,0,0,0,0,0,0,0,0,0,0,0,0,1.867,1.867,0,1.8734,1.8735,1.8736,1.8816,1.8817,1.8818,1.8819,1.8881,1.8882,1.8882,0,0,0,0,0,0,0,0,0,0,0,0,0,1.8612,1.8612,1.8669,1.867,1.8671,1.8734,1.8735,1.8736,1.8815,1.8817,1.8818,1.882,1.8881,1.8882,1.8882,0,0,0,0,0,0,0,0,0,0,0,0,0,1.8652,1.8613,1.8669,1.8718,1.8723,1.8734,1.8735,1.8736,1.8815,1.8817,1.8819,1.8821,1.8881,1.8881,1.8882,1.8848,0,0,1.8884,1.8885,0,0,0,0,0,0,0,0,1.865,1.8655,1.871,1.8715,1.8721,1.8769,1.8738,1.8774,1.8815,1.878,1.8819,1.8822,1.8842,1.8846,1.8854,1.8851,1.8854,1.8884,1.8885,1.8885,1.8885,0,0,0,0,0,0,0,1.8647,1.8652,1.8695,1.8711,1.8717,1.8736,1.8744,1.8745,1.8799,1.8783,1.8789,1.8796,1.8845,1.8853,1.8856,1.8855,1.8884,1.8885,1.8885,1.8886,1.8829,1.8828,0,0,0,0,0,0,1.8637,1.8649,1.8693,1.8697,1.869,1.8736,1.8745,1.8751,1.88,1.8809,1.8794,1.88,1.8851,1.8855,1.8858,1.8823,1.8885,1.8886,1.8886,1.8831,1.8829,1.8827,0,0,0,0,0,0,1.8636,1.8641,1.869,1.8675,1.8683,1.8735,1.8742,1.8752,1.876,1.8808,1.8818,1.8792,1.8853,1.8857,1.8851,1.8826,1.8886,1.8887,1.8834,1.8831,1.8828,1.875,0,0,0,0,0,0,1.8634,1.864,1.8628,1.8674,1.8683,1.8682,1.874,1.8752,1.8761,1.8769,1.8809,1.8817,1.8854,1.8849,1.8852,1.8828,1.8887,1.8836,1.8832,1.8829,1.8755,1.8745,1.8736,0,0,0,0,0,1.8632,1.8602,1.8627,1.8631,1.867,1.8681,1.8686,1.873,1.8759,1.8747,1.8779,1.8816,1.8829,1.8848,1.8851,1.8827,1.8838,1.8833,1.8829,1.8759,1.8747,1.8737,0,0,0,0,0,0,1.8548,1.8609,1.8637,1.8621,1.8646,1.8694,1.868,1.8715,1.8731,1.8737,1.879,1.8799,1.8786,1.8806,1.8827,1.8798,1.8839,1.8835,1.8785,1.8773,1.8764,1.8759,1.8888,0,0,0,0,0,1.8529,1.8534,1.8586,1.8567,1.8578,1.8627,1.8634,1.8666,1.8693,1.8703,1.8734,1.8757,1.8767,1.8771,1.8783,1.8759,1.8769,1.8745,1.8735,1.8727,1.8722,1.8713,1.8702,1.8813,1.8813,1.8813,0,0,1.8487,1.8521,1.852,1.8551,1.8574,1.8578,1.8635,1.8636,1.8639,1.8703,1.8699,1.8723,1.8752,1.8737,1.8732,1.8754,1.8695,1.8722,1.8715,1.8715,1.8707,1.8696,1.8687,1.881,1.881,1.8811,0,0,1.8413,1.8439,1.8427,1.845,1.8484,1.8518,1.8515,1.8559,1.8577,1.8575,1.8624,1.8628,1.8642,1.8662,1.8674,1.861,1.8645,1.8613,1.8562,1.8552,1.8543,1.8536,1.8513,1.8504,1.8608,1.8608,1.8608,0,1.8356,1.8365,1.8416,1.8415,1.8427,1.8488,1.8476,1.8495,1.853,1.8537,1.8561,1.8583,1.8607,1.8598,1.8583,1.859,1.8588,1.8607,1.8541,1.8534,1.8528,1.8506,1.8498,1.8604,1.8604,1.8605,1.8605,0,1.8294,1.8299,1.8285,1.832,1.8331,1.8324,1.8374,1.8379,1.8411,1.8442,1.8439,1.8471,1.849,1.8491,1.8521,1.8486,1.8499,1.8531,1.8573,1.8512,1.8493,1.8485,1.8598,1.8599,1.8601,1.8602,0,0,1.8166,1.8233,1.8227,1.8244,1.8288,1.8292,1.8289,1.831,1.8313,1.8336,1.8334,1.8347,1.8378,1.8391,1.8425,1.8416,1.8364,1.845,1.8451,1.8432,1.8328,1.8302,1.8292,1.8388,1.8387,1.8386,1.8325,0,1.81,1.8099,1.8146,1.8131,1.8136,1.8196,1.8193,1.8219,1.8248,1.8256,1.8288,1.8296,1.8337,1.8345,1.8339,1.8371,1.8343,1.8377,1.8386,1.8385,1.8375,1.8282,1.8255,1.8196,1.8318,1.8317,1.8316,0,1.8021,1.8043,1.8029,1.8076,1.808,1.8076,1.81,1.8108,1.8139,1.8161,1.8177,1.8217,1.8216,1.8257,1.8256,1.8278,1.8285,1.8301,1.83,1.8301,1.8346,1.828,1.8178,1.8168,1.8305,1.8306,1.8306,0,1.793,1.7955,1.795,1.7964,1.8018,1.8014,1.8036,1.807,1.808,1.81,1.8108,1.8127,1.8137,1.8151,1.8195,1.8221,1.8189,1.8234,1.8206,1.8205,1.8195,1.8195,1.8092,1.8201,1.8202,1.8202,1.8202,0,1.785,1.7839,1.791,1.7907,1.7897,1.7952,1.794,1.7967,1.7997,1.8,1.8052,1.8054,1.8112,1.812,1.8154,1.8148,1.8152,1.8169,1.8178,1.8164,1.8162,1.8168,1.8173,1.8199,1.82,1.82,1.8201,0,1.7744,1.7792,1.7791,1.7844,1.7857,1.7847,1.7891,1.789,1.7924,1.7927,1.7931,1.7983,1.7995,1.8041,1.8063,1.8086,1.8069,1.8087,1.8059,1.8064,1.8034,1.8036,1.793,1.7919,1.8036,1.8035,1.8034,0,1.769,1.7683,1.7736,1.7743,1.7763,1.7773,1.7785,1.7839,1.7849,1.7885,1.788,1.7897,1.7913,1.7929,1.7968,1.7986,1.8004,1.7966,1.8007,1.7993,1.8003,1.8003,1.8002,1.7957,1.7955,1.7954,1.7953,0,1.7587,1.7612,1.7628,1.7652,1.7665,1.7686,1.771,1.7712,1.7772,1.778,1.7795,1.7808,1.7832,1.7848,1.7873,1.7895,1.7933,1.794,1.7935,1.7919,1.7903,1.7911,1.8034,1.7942,1.7943,1.7944,1.7944,1.7945,1.7506,1.7503,1.7541,1.7557,1.7581,1.7603,1.7605,1.764,1.7654,1.7679,1.771,1.7721,1.7754,1.7791,1.781,1.7819,1.784,1.7832,1.783,1.7827,1.782,1.7903,1.7824,1.7824,1.7824,1.7825,1.7825,0,1.7406,1.7434,1.7448,1.7482,1.7494,1.7532,1.7562,1.7569,1.7578,1.7607,1.7623,1.7639,1.7656,1.7697,1.7717,1.7716,1.7734,1.7719,1.7719,1.7723,1.78,1.7802,1.7704,1.7704,1.7704,1.7704,1.7704,1.7704,1.7355,1.7353,1.7383,1.7394,1.7422,1.7434,1.7447,1.7468,1.7491,1.7508,1.7522,1.755,1.7584,1.7607,1.7624,1.7636,1.764,1.7619,1.7636,1.7706,1.7718,1.7729,1.7732,1.762,1.762,1.7559,1.7559,1.7558]}]]